EW4363 Weather Reports


Display with metric or nautical units.
time (UTC)temp
F
wind
direction
speed
MPH
gust
MPH
rain 1hr
in
rain 24hr
in
rain mn
in
humidity
%
barometer
mb
20260901212306 76 287 0.0 0.0 0.00 0.00 0.00 73 1018.3
20260901211804 76 286 0.0 0.0 0.00 0.00 0.00 73 1018.2
20260901211304 76 286 0.0 0.0 0.00 0.00 0.00 73 1018.1
20260901210804 76 286 0.0 0.0 0.00 0.00 0.00 73 1018.0
20260901210303 76 286 0.0 0.0 0.00 0.00 0.00 72 1018.0
20260901205803 76 287 0.0 0.0 0.00 0.00 0.00 72 1018.0
20260901205306 76 287 0.0 0.0 0.00 0.00 0.00 72 1017.9
20260901204804 76 287 0.0 0.0 0.00 0.00 0.00 72 1017.9
20260901204304 76 287 0.0 0.0 0.00 0.00 0.00 71 1017.9
20260901203804 77 287 0.0 1.0 0.00 0.00 0.00 71 1017.9
20260901203304 77 257 0.0 0.0 0.00 0.00 0.00 71 1017.8
20260901202804 77 257 0.0 0.0 0.00 0.00 0.00 71 1017.8
20260901202306 77 257 0.0 1.0 0.00 0.00 0.00 70 1017.7
20260901201804 78 257 0.0 0.0 0.00 0.00 0.00 69 1017.6
20260901201304 78 257 0.0 0.0 0.00 0.00 0.00 69 1017.5
20260901200805 78 257 0.0 1.0 0.00 0.00 0.00 69 1017.6
20260901200305 78 257 0.0 0.0 0.00 0.00 0.00 69 1017.6
20260901195804 78 257 0.0 0.0 0.00 0.00 0.00 68 1017.5
20260901195306 78 257 0.0 0.0 0.00 0.00 0.00 68 1017.4
20260901194804 78 257 0.0 0.0 0.00 0.00 0.00 68 1017.4
20260901193804 79 257 0.0 1.0 0.00 0.00 0.00 67 1017.3
20260901193304 79 253 0.0 1.0 0.00 0.00 0.00 67 1017.2
20260901192306 79 255 0.0 0.0 0.00 0.00 0.00 66 1017.3
20260901191804 79 255 0.0 1.0 0.00 0.00 0.00 66 1017.3
20260901191303 79 324 0.0 0.0 0.00 0.00 0.00 66 1017.2
20260901190804 80 324 0.0 1.0 0.00 0.00 0.00 66 1017.1
20260901190304 80 324 1.0 2.0 0.00 0.00 0.00 65 1016.9
20260901185806 80 335 0.0 1.0 0.00 0.00 0.00 65 1016.9
20260901185306 80 317 0.0 0.0 0.00 0.00 0.00 65 1016.8
20260901184804 80 317 0.0 1.0 0.00 0.00 0.00 65 1016.8
20260901184305 80 326 1.0 2.0 0.00 0.00 0.00 65 1016.8
20260901183804 80 324 1.0 2.0 0.00 0.00 0.00 64 1016.7
20260901183304 81 331 0.0 2.0 0.00 0.00 0.00 64 1016.6
20260901182804 81 250 0.0 2.0 0.00 0.00 0.00 64 1016.5
20260901182305 81 328 0.0 1.0 0.00 0.00 0.00 63 1016.4
20260901181304 81 263 0.0 5.0 0.00 0.00 0.00 63 1016.5
20260901180804 81 265 1.0 3.0 0.00 0.00 0.00 62 1016.6
20260901175804 81 262 2.0 3.0 0.00 0.00 0.00 62 1016.8
20260901175305 82 262 1.0 5.0 0.00 0.00 0.00 61 1017.0
20260901174804 82 331 0.0 3.0 0.00 0.00 0.00 61 1017.0
20260901174304 82 250 1.0 3.0 0.00 0.00 0.00 61 1017.1
20260901173804 82 300 2.0 7.0 0.00 0.00 0.00 60 1017.2
20260901173304 82 324 2.0 3.0 0.00 0.00 0.00 61 1017.2
20260901172804 82 307 2.0 5.0 0.00 0.00 0.00 61 1017.3
20260901172305 82 328 1.0 6.0 0.00 0.00 0.00 61 1017.3
20260901171304 82 303 1.0 6.0 0.00 0.00 0.00 61 1017.4
20260901170804 82 298 2.0 7.0 0.00 0.00 0.00 60 1017.6
20260901170304 82 326 1.0 6.0 0.00 0.00 0.00 60 1017.6
20260901165804 82 327 2.0 5.0 0.00 0.00 0.00 59 1017.4
20260901165306 82 295 2.0 3.0 0.00 0.00 0.00 59 1017.5
20260901164804 82 312 2.0 7.0 0.00 0.00 0.00 59 1017.5
20260901164304 83 322 3.0 5.0 0.00 0.00 0.00 59 1017.4
20260901162805 84 313 2.0 7.0 0.00 0.00 0.00 57 1017.6
20260901162306 84 322 3.0 6.0 0.00 0.00 0.00 56 1017.6
20260901161804 84 321 3.0 5.0 0.00 0.00 0.00 55 1017.7
20260901161303 85 311 3.0 7.0 0.00 0.00 0.00 54 1017.7
20260901160805 85 314 4.0 9.0 0.00 0.00 0.00 53 1017.8
20260901154804 87 305 2.0 7.0 0.00 0.00 0.00 53 1017.5
20260901154304 87 322 2.0 8.0 0.00 0.00 0.00 53 1017.4
20260901153804 87 298 2.0 6.0 0.00 0.00 0.00 53 1017.5
20260901152804 86 319 2.0 10.0 0.00 0.00 0.00 53 1017.6
20260901152306 86 320 4.0 9.0 0.00 0.00 0.00 53 1017.7
20260901151804 86 312 3.0 7.0 0.00 0.00 0.00 54 1017.8
20260901151304 85 312 3.0 9.0 0.00 0.00 0.00 55 1017.7
20260901150804 85 318 2.0 9.0 0.00 0.00 0.00 55 1017.8
20260901150304 85 309 2.0 6.0 0.00 0.00 0.00 55 1017.8
20260901145805 85 318 2.0 6.0 0.00 0.00 0.00 55 1017.7
20260901145306 85 303 2.0 7.0 0.00 0.00 0.00 55 1017.8
20260901144804 85 318 3.0 8.0 0.00 0.00 0.00 55 1018.1
20260901144304 85 321 3.0 8.0 0.00 0.00 0.00 55 1018.1
20260901143804 85 309 3.0 7.0 0.00 0.00 0.00 54 1018.0
20260901143304 85 306 2.0 6.0 0.00 0.00 0.00 54 1018.0
20260901142804 86 321 3.0 8.0 0.00 0.00 0.00 53 1017.9
20260901142306 86 315 3.0 7.0 0.00 0.00 0.00 52 1017.9
20260901141305 87 313 3.0 7.0 0.00 0.00 0.00 51 1018.0
20260901140304 86 322 2.0 5.0 0.00 0.00 0.00 52 1017.9
20260901135804 86 322 2.0 3.0 0.00 0.00 0.00 51 1017.7
20260901135305 86 321 1.0 3.0 0.00 0.00 0.00 52 1017.8
20260901134804 86 321 3.0 6.0 0.00 0.00 0.00 52 1018.0
20260901134304 86 323 2.0 9.0 0.00 0.00 0.00 52 1018.1
20260901133804 86 323 3.0 7.0 0.00 0.00 0.00 51 1018.0
20260901133304 86 317 2.0 3.0 0.00 0.00 0.00 51 1018.3
20260901132804 86 324 3.0 5.0 0.00 0.00 0.00 50 1018.3
20260901132307 87 327 2.0 5.0 0.00 0.00 0.00 50 1018.3
20260901131804 87 314 2.0 8.0 0.00 0.00 0.00 50 1018.3
20260901131304 87 319 3.0 7.0 0.00 0.00 0.00 49 1018.5
20260901130804 88 316 3.0 7.0 0.00 0.00 0.00 49 1018.6
20260901130304 88 317 3.0 9.0 0.00 0.00 0.00 49 1018.7
20260901125805 88 313 3.0 7.0 0.00 0.00 0.00 49 1018.7
20260901125308 88 320 5.0 12.0 0.00 0.00 0.00 49 1018.8
20260901124804 88 328 1.0 7.0 0.00 0.00 0.00 49 1018.7
20260901124305 88 319 4.0 8.0 0.00 0.00 0.00 51 1018.8
20260901123304 88 316 3.0 8.0 0.00 0.00 0.00 51 1018.8
20260901122804 88 276 3.0 8.0 0.00 0.00 0.00 51 1018.8
20260901122306 89 316 2.0 8.0 0.00 0.00 0.00 50 1018.8
20260901120304 89 299 3.0 10.0 0.00 0.00 0.00 47 1018.9
20260901115804 89 316 3.0 10.0 0.00 0.00 0.00 48 1018.9
20260901115306 89 320 3.0 6.0 0.00 0.00 0.00 47 1018.9
20260901114304 89 303 2.0 7.0 0.00 0.00 0.00 46 1018.9
20260901113804 89 283 1.0 8.0 0.00 0.00 0.00 47 1019.0
20260901113304 89 309 2.0 7.0 0.00 0.00 0.00 48 1019.1
20260901112306 89 319 2.0 7.0 0.00 0.00 0.00 48 1019.1
20260901111804 89 308 2.0 7.0 0.00 0.00 0.00 48 1019.1
20260901111305 88 321 3.0 7.0 0.00 0.00 0.00 49 1019.1
20260901110804 88 327 3.0 8.0 0.00 0.00 0.00 51 1019.1
20260901110305 87 319 2.0 6.0 0.00 0.00 0.00 50 1019.1
20260901105804 87 321 3.0 8.0 0.00 0.00 0.00 52 1019.2
20260901105305 86 317 5.0 9.0 0.00 0.00 0.00 52 1019.2
20260901104804 87 308 2.0 5.0 0.00 0.00 0.00 51 1019.2
20260901104304 87 323 1.0 3.0 0.00 0.00 0.00 50 1019.1
20260901103804 88 320 3.0 6.0 0.00 0.00 0.00 49 1019.1
20260901103305 87 333 1.0 7.0 0.00 0.00 0.00 50 1019.2
20260901102804 88 311 4.0 9.0 0.00 0.00 0.00 50 1019.2
20260901102306 88 324 2.0 6.0 0.00 0.00 0.00 50 1019.3
20260901101304 88 313 1.0 5.0 0.00 0.00 0.00 49 1019.4
20260901100804 87 312 0.0 6.0 0.00 0.00 0.00 50 1019.3
20260901100306 87 258 1.0 5.0 0.00 0.00 0.00 51 1019.4
20260901095805 87 296 2.0 5.0 0.00 0.00 0.00 50 1019.4
20260901094304 86 319 2.0 9.0 0.00 0.00 0.00 50 1019.4
20260901093805 86 319 0.0 5.0 0.00 0.00 0.00 51 1019.4
20260901093305 86 328 2.0 6.0 0.00 0.00 0.00 51 1019.3
20260901092804 86 322 1.0 8.0 0.00 0.00 0.00 51 1019.2
20260901092305 86 312 1.0 5.0 0.00 0.00 0.00 51 1019.3
20260901091804 86 315 1.0 5.0 0.00 0.00 0.00 52 1019.2
20260901091304 86 313 0.0 3.0 0.00 0.00 0.00 51 1019.2
20260901090804 86 295 0.0 2.0 0.00 0.00 0.00 52 1019.1
20260901090304 85 324 0.0 1.0 0.00 0.00 0.00 54 1019.0
20260901085804 84 326 0.0 3.0 0.00 0.00 0.00 55 1018.9
20260901085306 84 310 1.0 3.0 0.00 0.00 0.00 55 1018.9
20260901084804 84 321 1.0 2.0 0.00 0.00 0.00 56 1018.9
20260901084304 83 320 0.0 1.0 0.00 0.00 0.00 58 1018.8
20260901083805 82 260 0.0 2.0 0.00 0.00 0.00 60 1018.9
20260901083304 82 267 1.0 2.0 0.00 0.00 0.00 61 1018.9
20260901082805 82 328 0.0 2.0 0.00 0.00 0.00 62 1018.9
20260901081805 80 272 1.0 3.0 0.00 0.00 0.00 64 1018.7
20260901081305 80 289 1.0 3.0 0.00 0.00 0.00 64 1018.8
20260901080804 80 268 1.0 3.0 0.00 0.00 0.00 65 1018.8
20260901080305 79 280 2.0 5.0 0.00 0.00 0.00 65 1018.9
20260901075804 79 261 2.0 5.0 0.00 0.00 0.00 66 1018.8
20260901074804 79 269 1.0 3.0 0.00 0.00 0.00 68 1018.8
20260901074304 78 278 1.0 3.0 0.00 0.00 0.00 70 1018.8
20260901073804 78 270 1.0 3.0 0.00 0.00 0.00 71 1018.9
20260901073304 77 269 0.0 2.0 0.00 0.00 0.00 73 1018.9
20260901072309 76 272 0.0 0.0 0.00 0.00 0.00 76 1018.8
20260901071805 75 272 0.0 3.0 0.00 0.00 0.00 77 1018.8
20260901070805 74 332 0.0 0.0 0.00 0.00 0.00 80 1018.9
20260901070305 73 329 0.0 0.0 0.00 0.00 0.00 82 1018.9
20260901065805 73 329 0.0 0.0 0.00 0.00 0.00 83 1019.0
20260901065306 72 329 0.0 0.0 0.00 0.00 0.00 83 1019.0
20260901064805 72 329 0.0 0.0 0.00 0.00 0.00 83 1019.1
20260901064304 72 329 0.0 0.0 0.00 0.00 0.00 83 1019.2
20260901063305 72 312 0.0 0.0 0.00 0.00 0.00 83 1019.2
20260901062804 72 293 0.0 0.0 0.00 0.00 0.00 84 1019.1
20260901062309 71 293 0.0 0.0 0.00 0.00 0.00 85 1019.1
20260901061804 71 293 0.0 0.0 0.00 0.00 0.00 84 1019.1
20260901061304 71 294 0.0 0.0 0.00 0.00 0.00 84 1019.1
20260901060804 71 324 0.0 0.0 0.00 0.00 0.00 85 1019.0
20260901060305 71 324 0.0 0.0 0.00 0.00 0.00 85 1019.0
20260901055805 71 324 0.0 0.0 0.00 0.00 0.00 85 1018.9
20260901055306 71 324 0.0 0.0 0.00 0.00 0.00 85 1018.9
20260901054804 71 324 0.0 0.0 0.00 0.00 0.00 85 1018.9
20260901053804 71 324 0.0 0.0 0.00 0.00 0.00 86 1018.8
20260901053304 71 324 0.0 0.0 0.00 0.00 0.00 86 1018.9
20260901052804 71 324 0.0 0.0 0.00 0.00 0.00 86 1018.9
20260901052307 71 324 0.0 0.0 0.00 0.00 0.00 86 1018.9
20260901051805 71 325 0.0 0.0 0.00 0.00 0.00 86 1018.9
20260901051304 71 325 0.0 0.0 0.00 0.00 0.00 86 1018.8
20260901050805 71 325 0.0 0.0 0.00 0.00 0.00 86 1018.9
20260901050304 71 325 0.0 0.0 0.00 0.00 0.00 86 1018.8
20260901045805 71 325 0.0 0.0 0.00 0.00 0.00 86 1018.9
20260901044305 71 325 0.0 0.0 0.00 0.00 0.00 86 1018.9
20260901043805 71 325 0.0 0.0 0.00 0.00 0.00 86 1018.8
20260901043305 71 325 0.0 0.0 0.00 0.00 0.00 86 1018.8
20260901042805 71 325 0.0 0.0 0.00 0.00 0.00 85 1018.9
20260901042306 71 326 0.0 0.0 0.00 0.00 0.00 85 1018.9
20260901041805 72 325 0.0 0.0 0.00 0.00 0.00 84 1018.9
20260901041304 72 326 0.0 0.0 0.00 0.00 0.00 84 1018.9
20260901040804 72 326 0.0 0.0 0.00 0.00 0.00 84 1019.0
20260901040305 72 326 0.0 0.0 0.00 0.00 0.00 84 1019.0
20260901035804 72 326 0.0 0.0 0.00 0.00 0.00 84 1019.0
20260901035306 72 326 0.0 0.0 0.00 0.00 0.00 84 1019.0
20260901034805 72 326 0.0 0.0 0.00 0.00 0.00 84 1018.9
20260901034304 72 326 0.0 0.0 0.00 0.00 0.00 84 1019.0
20260901033804 72 326 0.0 0.0 0.00 0.00 0.00 84 1019.0
20260901032805 73 326 0.0 0.0 0.00 0.00 0.00 83 1019.0
20260901032306 73 326 0.0 1.0 0.00 0.00 0.00 83 1019.0
20260901031804 73 326 0.0 1.0 0.00 0.00 0.00 82 1019.0
20260901031306 73 324 0.0 0.0 0.00 0.00 0.00 82 1019.0
20260901030805 73 324 0.0 0.0 0.00 0.00 0.00 82 1019.0
20260901030304 73 324 0.0 0.0 0.00 0.00 0.00 82 1019.0
20260901025805 74 324 0.0 0.0 0.00 0.00 0.00 81 1019.0
20260901025306 74 324 0.0 0.0 0.00 0.00 0.00 81 1019.0
20260901024805 74 324 0.0 0.0 0.00 0.00 0.00 80 1019.1
20260901024305 74 324 0.0 0.0 0.00 0.00 0.00 81 1019.2
20260901023805 74 324 0.0 0.0 0.00 0.00 0.00 80 1019.2
20260901023305 75 324 0.0 0.0 0.00 0.00 0.00 80 1019.3
20260901022805 75 324 0.0 0.0 0.00 0.00 0.00 80 1019.3
20260901022306 75 324 0.0 0.0 0.00 0.00 0.00 79 1019.4
20260901021804 75 324 0.0 0.0 0.00 0.00 0.00 79 1019.4
20260901021305 75 324 0.0 0.0 0.00 0.00 0.00 79 1019.5
20260901020805 75 324 0.0 0.0 0.00 0.00 0.00 79 1019.5
20260901015804 76 324 0.0 0.0 0.00 0.00 0.00 79 1019.6
20260901015306 76 324 0.0 0.0 0.00 0.00 0.00 79 1019.7
20260901014805 76 324 0.0 0.0 0.00 0.00 0.00 79 1019.7
20260901014304 76 324 0.0 0.0 0.00 0.00 0.00 79 1019.8
20260901013805 76 324 0.0 0.0 0.00 0.00 0.00 78 1019.8
20260901013304 76 324 0.0 0.0 0.00 0.00 0.00 78 1019.8
20260901012804 76 324 0.0 0.0 0.00 0.00 0.00 78 1019.7
20260901012306 76 324 0.0 0.0 0.00 0.00 0.00 79 1019.7
20260901010804 76 324 0.0 0.0 0.00 0.00 0.00 79 1019.7
20260901010304 76 324 0.0 0.0 0.00 0.00 0.00 79 1019.7
20260901005306 76 324 0.0 0.0 0.00 0.00 0.00 79 1019.8
20260901004804 76 324 0.0 0.0 0.00 0.00 0.00 79 1019.8
20260901004304 76 324 0.0 0.0 0.00 0.00 0.00 79 1019.9
20260901003805 76 324 0.0 0.0 0.00 0.00 0.00 79 1019.9
20260901002305 77 325 1.0 2.0 0.00 0.00 0.00 79 1019.8
20260901001805 77 325 0.0 3.0 0.00 0.00 0.00 78 1019.8
20260901001304 77 325 0.0 0.0 0.00 0.00 0.00 78 1019.8
20260901000804 77 325 0.0 0.0 0.00 0.00 0.00 78 1019.8
20260901000304 77 326 0.0 1.0 0.00 0.00 0.00 78 1019.9
20260831235805 77 326 0.0 1.0 0.00 0.00 0.00 78 1019.9
20260831235306 77 327 0.0 0.0 0.00 0.00 0.00 78 1019.9
20260831234804 77 325 0.0 1.0 0.00 0.00 0.00 78 1019.9
20260831234305 77 325 0.0 2.0 0.00 0.00 0.00 78 1019.9
20260831233805 77 325 0.0 2.0 0.00 0.00 0.00 78 1019.9
20260831233305 77 324 0.0 1.0 0.00 0.00 0.00 78 1019.8
20260831232805 77 328 0.0 1.0 0.00 0.00 0.00 78 1019.8
20260831232306 77 329 0.0 2.0 0.00 0.00 0.00 78 1019.8
20260831231804 77 326 0.0 1.0 0.00 0.00 0.00 78 1019.8
20260831231304 77 326 1.0 3.0 0.00 0.00 0.00 78 1019.8
20260831230805 77 325 1.0 3.0 0.00 0.00 0.00 77 1019.7
20260831225804 78 328 0.0 1.0 0.00 0.00 0.00 77 1019.6
20260831225306 78 331 0.0 0.0 0.00 0.00 0.00 77 1019.7
20260831224804 78 328 0.0 1.0 0.00 0.00 0.00 77 1019.7
20260831224305 78 326 0.0 1.0 0.00 0.00 0.00 77 1019.7
20260831223804 78 326 1.0 2.0 0.00 0.00 0.00 77 1019.6
20260831223304 78 328 0.0 2.0 0.00 0.00 0.00 76 1019.6
20260831222306 78 284 0.0 3.0 0.00 0.00 0.00 75 1019.5
20260831221804 78 325 0.0 2.0 0.00 0.00 0.00 75 1019.5
20260831221305 78 327 0.0 0.0 0.00 0.00 0.00 75 1019.5
20260831220813 78 314 0.0 2.0 0.00 0.00 0.00 74 1019.5
20260831220305 78 325 1.0 3.0 0.00 0.00 0.00 74 1019.6
20260831215805 78 323 0.0 2.0 0.00 0.00 0.00 74 1019.5
20260831215306 78 326 0.0 2.0 0.00 0.00 0.00 74 1019.5
20260831214804 78 326 0.0 1.0 0.00 0.00 0.00 73 1019.5
20260831214304 78 328 0.0 1.0 0.00 0.00 0.00 73 1019.4
20260831213805 78 324 0.0 2.0 0.00 0.00 0.00 73 1019.4
20260831213305 78 325 0.0 0.0 0.00 0.00 0.00 72 1019.4